EXS29JF LSGG-EGBB

Flight info

Callsign EXS29JF
Flight time 1h 33m
Altitude 36000
Route SIROD Z124 IBABA DCT TUTAX DCT OBURO DCT OKRIX DCT CLM DCT KOPOR DCT ABNUR DCT DIMAL DCT ALESO T420 HEMEL
Aircraft B738/M-SDE2E3FGHIRWXY/LB1

Departure

Time 2026-05-07 23:15
Airport Geneva International Airport (LSGG)

Arrival

Time 2026-05-08 00:48
Airport Birmingham Airport (EGBB)
Time Latitude Longitude Altitude Speed Heading
2026-05-07 23:00 46.23034 6.10567 1399 ft 0 kts 137°
2026-05-07 23:03 46.23036 6.10565 1392 ft 3 kts 137°
2026-05-07 23:03 46.23048 6.10548 1405 ft 4 kts 134°
2026-05-07 23:03 46.23070 6.10525 1401 ft 4 kts 194°
2026-05-07 23:04 46.23083 6.10536 1403 ft 4 kts 225°
2026-05-07 23:04 46.23096 6.10557 1400 ft 0 kts 225°
2026-05-07 23:11 46.23095 6.10554 1396 ft 2 kts 225°
2026-05-07 23:11 46.23059 6.10509 1392 ft 11 kts 218°
2026-05-07 23:11 46.23002 6.10422 1392 ft 12 kts 229°
2026-05-07 23:11 46.22958 6.10324 1396 ft 9 kts 264°
2026-05-07 23:12 46.22996 6.10243 1397 ft 13 kts 314°
2026-05-07 23:12 46.23052 6.10127 1394 ft 12 kts 264°
2026-05-07 23:12 46.23010 6.10050 1399 ft 13 kts 224°
2026-05-07 23:12 46.22907 6.09909 1398 ft 23 kts 226°
2026-05-07 23:13 46.22792 6.09743 1399 ft 23 kts 225°
2026-05-07 23:13 46.22682 6.09580 1399 ft 22 kts 226°
2026-05-07 23:13 46.22580 6.09417 1399 ft 22 kts 234°
2026-05-07 23:13 46.22557 6.09215 1410 ft 21 kts 297°
2026-05-07 23:14 46.22649 6.09198 1419 ft 11 kts 36°
2026-05-07 23:14 46.22666 6.09222 1421 ft 0 kts 46°
2026-05-07 23:14 46.22667 6.09224 1421 ft 1 kts 45°
2026-05-07 23:14 46.22797 6.09418 1417 ft 68 kts 46°
2026-05-07 23:15 46.23329 6.10198 1396 ft 148 kts 45°
2026-05-07 23:15 46.24170 6.11425 1815 ft 180 kts 45°
2026-05-07 23:15 46.25042 6.12658 3075 ft 178 kts 43°
2026-05-07 23:15 46.25998 6.14017 3682 ft 209 kts 45°
2026-05-07 23:16 46.27075 6.15603 3976 ft 234 kts 46°
2026-05-07 23:16 46.28240 6.17363 4349 ft 247 kts 46°
2026-05-07 23:16 46.29475 6.19202 4546 ft 264 kts 46°
2026-05-07 23:16 46.30795 6.21156 4885 ft 278 kts 46°
2026-05-07 23:17 46.32159 6.23170 5554 ft 280 kts 46°
2026-05-07 23:17 46.33528 6.25190 6252 ft 283 kts 45°
2026-05-07 23:17 46.34916 6.27239 6912 ft 287 kts 45°
2026-05-07 23:17 46.36384 6.29204 7570 ft 290 kts 30°
2026-05-07 23:18 46.38292 6.29994 8259 ft 287 kts 355°
2026-05-07 23:18 46.40220 6.29361 9011 ft 285 kts 340°
2026-05-07 23:18 46.42130 6.28519 9743 ft 289 kts 340°
2026-05-07 23:18 46.44071 6.27691 10412 ft 295 kts 341°
2026-05-07 23:19 46.46117 6.26834 10614 ft 319 kts 341°
2026-05-07 23:19 46.48326 6.25923 10850 ft 339 kts 341°
2026-05-07 23:19 46.50627 6.24993 11459 ft 346 kts 341°
2026-05-07 23:19 46.52957 6.24055 12199 ft 348 kts 342°
2026-05-07 23:20 46.55295 6.23116 12949 ft 351 kts 342°
2026-05-07 23:20 46.57665 6.22163 13721 ft 355 kts 342°
2026-05-07 23:20 46.60046 6.21173 14435 ft 357 kts 338°
2026-05-07 23:20 46.62191 6.19409 15120 ft 355 kts 317°
2026-05-07 23:21 46.63907 6.16814 15811 ft 357 kts 309°
2026-05-07 23:21 46.65533 6.14048 16460 ft 362 kts 309°
2026-05-07 23:21 46.67172 6.11236 17152 ft 366 kts 309°
2026-05-07 23:21 46.68843 6.08413 17855 ft 370 kts 310°
2026-05-07 23:22 46.70546 6.05573 18493 ft 374 kts 310°
2026-05-07 23:22 46.72246 6.02695 19084 ft 377 kts 306°
2026-05-07 23:22 46.73495 5.99343 19665 ft 378 kts 290°
2026-05-07 23:22 46.74395 5.95778 20265 ft 381 kts 289°
2026-05-07 23:23 46.75294 5.92075 20821 ft 385 kts 289°
2026-05-07 23:23 46.76193 5.88367 21385 ft 389 kts 289°
2026-05-07 23:23 46.77104 5.84648 21953 ft 391 kts 289°
2026-05-07 23:23 46.78020 5.80947 22477 ft 395 kts 289°
2026-05-07 23:24 46.78963 5.77165 22995 ft 398 kts 289°
2026-05-07 23:24 46.79917 5.73351 23505 ft 402 kts 289°
2026-05-07 23:24 46.80881 5.69501 23951 ft 406 kts 289°
2026-05-07 23:24 46.81865 5.65568 24378 ft 409 kts 290°
2026-05-07 23:25 46.82829 5.61709 24804 ft 412 kts 289°
2026-05-07 23:25 46.83812 5.57765 25227 ft 414 kts 289°
2026-05-07 23:25 46.84798 5.53802 25649 ft 417 kts 289°
2026-05-07 23:25 46.85790 5.49810 26051 ft 420 kts 289°
2026-05-07 23:26 46.86787 5.45787 26448 ft 422 kts 289°
2026-05-07 23:26 46.87787 5.41746 26841 ft 425 kts 289°
2026-05-07 23:26 46.88810 5.37680 27242 ft 427 kts 289°
2026-05-07 23:26 46.89847 5.33599 27618 ft 429 kts 289°
2026-05-07 23:27 46.92315 5.25610 28364 ft 435 kts 302°
2026-05-07 23:27 46.94120 5.22041 28738 ft 438 kts 310°
2026-05-07 23:27 46.96289 5.18893 29097 ft 441 kts 316°
2026-05-07 23:28 46.98574 5.15881 29440 ft 443 kts 317°
2026-05-07 23:28 47.00895 5.12883 29765 ft 446 kts 317°
2026-05-07 23:28 47.03230 5.09867 30073 ft 448 kts 317°
2026-05-07 23:28 47.05568 5.06825 30343 ft 450 kts 317°
2026-05-07 23:29 47.07905 5.03759 30613 ft 452 kts 317°
2026-05-07 23:29 47.10238 5.00674 30951 ft 451 kts 316°
2026-05-07 23:29 47.12559 4.97593 31343 ft 449 kts 316°
2026-05-07 23:29 47.14871 4.94512 31725 ft 448 kts 316°
2026-05-07 23:30 47.17179 4.91432 32061 ft 448 kts 316°
2026-05-07 23:30 47.19484 4.88349 32395 ft 448 kts 316°
2026-05-07 23:30 47.21788 4.85266 32754 ft 447 kts 316°
2026-05-07 23:30 47.24084 4.82191 33111 ft 446 kts 316°
2026-05-07 23:31 47.26379 4.79114 33432 ft 446 kts 316°
2026-05-07 23:31 47.28668 4.76041 33738 ft 446 kts 316°
2026-05-07 23:31 47.30958 4.72964 34069 ft 445 kts 315°
2026-05-07 23:31 47.33244 4.69888 34337 ft 445 kts 315°
2026-05-07 23:32 47.35527 4.66813 34576 ft 445 kts 315°
2026-05-07 23:32 47.37812 4.63731 34810 ft 445 kts 315°
2026-05-07 23:32 47.40095 4.60648 35048 ft 445 kts 315°
2026-05-07 23:32 47.42376 4.57563 35281 ft 445 kts 315°
2026-05-07 23:33 47.44659 4.54472 35522 ft 445 kts 315°
2026-05-07 23:33 47.46942 4.51378 35752 ft 445 kts 315°
2026-05-07 23:33 47.49220 4.48289 35991 ft 445 kts 315°
2026-05-07 23:33 47.51497 4.45195 36209 ft 445 kts 315°
2026-05-07 23:34 47.53778 4.42092 36420 ft 445 kts 315°
2026-05-07 23:34 47.56052 4.38995 36645 ft 445 kts 315°
2026-05-07 23:34 47.58329 4.35890 36852 ft 445 kts 315°
2026-05-07 23:34 47.60605 4.32784 37058 ft 445 kts 315°
2026-05-07 23:35 47.65116 4.26455 37075 ft 445 kts 309°
2026-05-07 23:35 47.68718 4.19075 37069 ft 440 kts 301°
2026-05-07 23:36 47.72047 4.11552 37073 ft 438 kts 301°
2026-05-07 23:36 47.75412 4.04020 37068 ft 437 kts 301°
2026-05-07 23:37 47.78795 3.96519 37066 ft 437 kts 301°
2026-05-07 23:37 47.82177 3.89019 37071 ft 437 kts 301°
2026-05-07 23:38 47.85559 3.81500 37073 ft 437 kts 301°
2026-05-07 23:38 47.88942 3.73954 37063 ft 439 kts 301°
2026-05-07 23:39 47.92328 3.66386 37076 ft 439 kts 301°
2026-05-07 23:39 47.95993 3.59087 37058 ft 444 kts 314°
2026-05-07 23:40 48.01073 3.53810 37066 ft 450 kts 333°
2026-05-07 23:40 48.06867 3.50212 37062 ft 452 kts 335°
2026-05-07 23:41 48.12712 3.46714 37072 ft 453 kts 335°
2026-05-07 23:41 48.18548 3.43138 37069 ft 453 kts 335°
2026-05-07 23:42 48.24380 3.39505 37073 ft 454 kts 334°
2026-05-07 23:42 48.30204 3.35853 37067 ft 454 kts 334°
2026-05-07 23:43 48.36030 3.32191 37076 ft 454 kts 334°
2026-05-07 23:43 48.41854 3.28524 37068 ft 454 kts 334°
2026-05-07 23:44 48.47671 3.24852 37072 ft 453 kts 334°
2026-05-07 23:44 48.53442 3.21201 37072 ft 452 kts 334°
2026-05-07 23:45 48.59237 3.17526 37075 ft 451 kts 334°
2026-05-07 23:45 48.65017 3.13851 37072 ft 450 kts 334°
2026-05-07 23:46 48.70785 3.10174 37080 ft 450 kts 334°
2026-05-07 23:46 48.76553 3.06490 37071 ft 450 kts 334°
2026-05-07 23:47 48.82313 3.02801 37074 ft 449 kts 334°
2026-05-07 23:47 48.87920 2.98668 37084 ft 447 kts 327°
2026-05-07 23:48 48.93280 2.93887 37084 ft 447 kts 326°
2026-05-07 23:48 48.98653 2.89041 37254 ft 451 kts 327°
2026-05-07 23:49 49.01357 2.86633 37513 ft 449 kts 327°
2026-05-07 23:49 49.04057 2.84244 37767 ft 449 kts 327°
2026-05-07 23:49 49.06754 2.81864 37902 ft 449 kts 327°
2026-05-07 23:49 49.09464 2.79474 38063 ft 450 kts 327°
2026-05-07 23:50 49.14907 2.74666 38079 ft 452 kts 327°
2026-05-07 23:50 49.19421 2.70672 38071 ft 450 kts 327°
2026-05-07 23:51 49.24817 2.65881 38075 ft 447 kts 327°
2026-05-07 23:51 49.30180 2.61107 38075 ft 445 kts 327°
2026-05-07 23:52 49.35564 2.56301 38074 ft 444 kts 327°
2026-05-07 23:52 49.40867 2.51555 38081 ft 444 kts 327°
2026-05-07 23:53 49.46215 2.46760 38078 ft 445 kts 327°
2026-05-07 23:53 49.51572 2.41943 38074 ft 447 kts 327°
2026-05-07 23:54 49.57014 2.37269 38084 ft 449 kts 328°
2026-05-07 23:54 49.62517 2.32665 38083 ft 451 kts 328°
2026-05-07 23:55 49.68028 2.28027 38070 ft 452 kts 328°
2026-05-07 23:55 49.73550 2.23342 38073 ft 453 kts 328°
2026-05-07 23:56 49.79074 2.18634 38079 ft 454 kts 328°
2026-05-07 23:56 49.84609 2.13904 38074 ft 454 kts 328°
2026-05-07 23:57 49.90136 2.09170 38085 ft 454 kts 328°
2026-05-07 23:57 49.95672 2.04416 38080 ft 454 kts 328°
2026-05-07 23:58 50.01198 1.99658 38081 ft 454 kts 328°
2026-05-07 23:58 50.06715 1.94896 38085 ft 453 kts 328°
2026-05-07 23:59 50.12220 1.90133 38078 ft 452 kts 328°
2026-05-07 23:59 50.17570 1.85142 38070 ft 449 kts 319°
2026-05-08 00:00 50.22127 1.78504 38079 ft 445 kts 312°
2026-05-08 00:00 50.26497 1.71679 38079 ft 444 kts 312°
2026-05-08 00:01 50.30863 1.64938 38076 ft 444 kts 313°
2026-05-08 00:01 50.35275 1.58178 38074 ft 444 kts 313°
2026-05-08 00:02 50.39686 1.51413 38076 ft 444 kts 313°
2026-05-08 00:02 50.44095 1.44631 38082 ft 444 kts 313°
2026-05-08 00:03 50.48503 1.37830 38081 ft 445 kts 313°
2026-05-08 00:03 50.52778 1.30827 38081 ft 444 kts 309°
2026-05-08 00:04 50.56933 1.23630 38078 ft 445 kts 310°
2026-05-08 00:04 50.61229 1.16602 38085 ft 446 kts 312°
2026-05-08 00:05 50.65637 1.09720 38082 ft 447 kts 313°
2026-05-08 00:05 50.70039 1.02799 38081 ft 447 kts 312°
2026-05-08 00:06 50.74418 0.95840 38079 ft 447 kts 312°
2026-05-08 00:06 50.78792 0.88859 38078 ft 447 kts 312°
2026-05-08 00:07 50.83164 0.81864 38078 ft 447 kts 312°
2026-05-08 00:07 50.87533 0.74866 38082 ft 447 kts 312°
2026-05-08 00:08 50.91911 0.67881 38085 ft 447 kts 312°
2026-05-08 00:08 50.96286 0.60883 38085 ft 447 kts 312°
2026-05-08 00:09 50.98472 0.57361 37693 ft 452 kts 311°
2026-05-08 00:09 51.00667 0.53777 37152 ft 452 kts 311°
2026-05-08 00:09 51.02849 0.50204 36555 ft 450 kts 311°
2026-05-08 00:09 51.05024 0.46641 35971 ft 449 kts 311°
2026-05-08 00:10 51.07198 0.43089 35384 ft 448 kts 312°
2026-05-08 00:10 51.09411 0.39628 34934 ft 445 kts 313°
2026-05-08 00:10 51.11649 0.36241 34488 ft 442 kts 314°
2026-05-08 00:10 51.13877 0.32898 34054 ft 439 kts 314°
2026-05-08 00:11 51.16060 0.29612 33563 ft 436 kts 314°
2026-05-08 00:11 51.18246 0.26301 33098 ft 432 kts 313°
2026-05-08 00:11 51.20413 0.22998 32689 ft 428 kts 313°
2026-05-08 00:11 51.22577 0.19686 32271 ft 424 kts 313°
2026-05-08 00:12 51.24655 0.16497 32045 ft 420 kts 313°
2026-05-08 00:12 51.26759 0.13265 31611 ft 417 kts 313°
2026-05-08 00:12 51.28836 0.10071 31211 ft 413 kts 313°
2026-05-08 00:12 51.30899 0.06894 30802 ft 410 kts 313°
2026-05-08 00:13 51.32981 0.03811 30395 ft 408 kts 318°
2026-05-08 00:13 51.35306 0.01216 29968 ft 408 kts 326°
2026-05-08 00:13 51.37743 -0.01096 29516 ft 405 kts 327°
2026-05-08 00:13 51.40164 -0.03335 29104 ft 400 kts 327°
2026-05-08 00:14 51.42562 -0.05554 28683 ft 397 kts 327°
2026-05-08 00:14 51.44936 -0.07772 28279 ft 393 kts 327°
2026-05-08 00:14 51.47273 -0.09976 27880 ft 389 kts 327°
2026-05-08 00:14 51.49605 -0.12191 27458 ft 386 kts 326°
2026-05-08 00:15 51.51906 -0.14386 27067 ft 383 kts 326°
2026-05-08 00:15 51.54190 -0.16569 26675 ft 381 kts 326°
2026-05-08 00:15 51.56459 -0.18742 26277 ft 378 kts 326°
2026-05-08 00:15 51.58711 -0.20901 25893 ft 376 kts 326°
2026-05-08 00:16 51.60949 -0.23047 25510 ft 373 kts 326°
2026-05-08 00:16 51.63107 -0.25119 25146 ft 371 kts 326°
2026-05-08 00:16 51.65316 -0.27244 24762 ft 370 kts 326°
2026-05-08 00:16 51.67523 -0.29364 24386 ft 368 kts 327°
2026-05-08 00:17 51.69721 -0.31467 24009 ft 367 kts 327°
2026-05-08 00:17 51.71913 -0.33565 23628 ft 366 kts 327°
2026-05-08 00:17 51.74099 -0.35658 23181 ft 365 kts 327°
2026-05-08 00:17 51.76275 -0.37745 22770 ft 363 kts 327°
2026-05-08 00:18 51.78432 -0.39818 22380 ft 361 kts 327°
2026-05-08 00:18 51.80580 -0.41885 22014 ft 358 kts 326°
2026-05-08 00:18 51.82707 -0.43949 21699 ft 354 kts 326°
2026-05-08 00:18 51.84809 -0.46003 21392 ft 353 kts 326°
2026-05-08 00:19 51.86903 -0.48056 21090 ft 352 kts 326°
2026-05-08 00:19 51.88993 -0.50099 20787 ft 349 kts 326°
2026-05-08 00:19 51.91064 -0.52129 20477 ft 347 kts 326°
2026-05-08 00:19 51.93130 -0.54158 20180 ft 347 kts 326°
2026-05-08 00:20 51.95194 -0.56184 19888 ft 349 kts 326°
2026-05-08 00:20 51.97276 -0.58220 19579 ft 349 kts 326°
2026-05-08 00:20 51.99349 -0.60248 19276 ft 347 kts 326°
2026-05-08 00:20 52.01387 -0.62242 18978 ft 346 kts 326°
2026-05-08 00:21 52.03447 -0.64258 18677 ft 345 kts 326°
2026-05-08 00:21 52.05496 -0.66268 18379 ft 344 kts 326°
2026-05-08 00:21 52.07543 -0.68278 18038 ft 343 kts 326°
2026-05-08 00:21 52.09578 -0.70278 17720 ft 341 kts 326°
2026-05-08 00:22 52.11605 -0.72272 17401 ft 340 kts 326°
2026-05-08 00:22 52.13623 -0.74259 17105 ft 338 kts 326°
2026-05-08 00:22 52.15627 -0.76235 16816 ft 336 kts 326°
2026-05-08 00:22 52.17625 -0.78206 16518 ft 335 kts 326°
2026-05-08 00:23 52.19615 -0.80172 16227 ft 334 kts 326°
2026-05-08 00:23 52.21593 -0.82131 15934 ft 333 kts 326°
2026-05-08 00:23 52.23492 -0.84253 15638 ft 329 kts 313°
2026-05-08 00:23 52.24851 -0.87187 15365 ft 322 kts 294°
2026-05-08 00:24 52.25572 -0.90600 15102 ft 317 kts 281°
2026-05-08 00:24 52.26056 -0.94106 14825 ft 317 kts 279°
2026-05-08 00:24 52.26507 -0.97626 14545 ft 316 kts 279°
2026-05-08 00:24 52.26957 -1.01136 14274 ft 316 kts 279°
2026-05-08 00:25 52.27415 -1.04643 13989 ft 314 kts 280°
2026-05-08 00:25 52.27877 -1.08102 13691 ft 310 kts 280°
2026-05-08 00:25 52.28338 -1.11520 13393 ft 306 kts 280°
2026-05-08 00:25 52.28795 -1.14897 13115 ft 302 kts 280°
2026-05-08 00:26 52.29247 -1.18234 12861 ft 300 kts 280°
2026-05-08 00:26 52.29696 -1.21556 12594 ft 299 kts 280°
2026-05-08 00:26 52.30144 -1.24861 12332 ft 297 kts 280°
2026-05-08 00:26 52.30588 -1.28147 12074 ft 296 kts 280°
2026-05-08 00:27 52.31027 -1.31413 11823 ft 294 kts 280°
2026-05-08 00:27 52.31462 -1.34660 11563 ft 290 kts 280°
2026-05-08 00:27 52.31889 -1.37860 11308 ft 287 kts 280°
2026-05-08 00:27 52.32312 -1.41028 11069 ft 284 kts 280°
2026-05-08 00:28 52.32732 -1.44183 10821 ft 284 kts 280°
2026-05-08 00:28 52.33151 -1.47337 10580 ft 284 kts 280°
2026-05-08 00:28 52.33570 -1.50494 10334 ft 283 kts 280°
2026-05-08 00:28 52.33986 -1.53630 10077 ft 281 kts 280°
2026-05-08 00:29 52.34399 -1.56741 9812 ft 278 kts 280°
2026-05-08 00:29 52.34804 -1.59815 9546 ft 275 kts 279°
2026-05-08 00:29 52.35202 -1.62850 9309 ft 271 kts 279°
2026-05-08 00:29 52.35591 -1.65855 9071 ft 268 kts 277°
2026-05-08 00:30 52.35687 -1.68840 8915 ft 261 kts 265°
2026-05-08 00:30 52.35576 -1.71794 8746 ft 259 kts 263°
2026-05-08 00:30 52.35434 -1.74732 8605 ft 260 kts 263°
2026-05-08 00:30 52.35291 -1.77686 8437 ft 262 kts 263°
2026-05-08 00:31 52.35159 -1.80662 8292 ft 263 kts 264°
2026-05-08 00:31 52.35034 -1.83656 8129 ft 264 kts 264°
2026-05-08 00:31 52.34912 -1.86664 7960 ft 266 kts 264°
2026-05-08 00:31 52.34793 -1.89689 7804 ft 267 kts 264°
2026-05-08 00:32 52.34675 -1.92709 7624 ft 265 kts 264°
2026-05-08 00:32 52.34561 -1.95681 7467 ft 259 kts 264°
2026-05-08 00:32 52.34487 -1.98599 7285 ft 255 kts 274°
2026-05-08 00:32 52.35159 -2.01221 7152 ft 253 kts 310°
2026-05-08 00:33 52.36628 -2.02683 7064 ft 248 kts 345°
2026-05-08 00:33 52.38286 -2.03155 7065 ft 238 kts 349°
2026-05-08 00:33 52.39957 -2.03368 6936 ft 249 kts 358°
2026-05-08 00:33 52.41726 -2.03346 6701 ft 260 kts 360°
2026-05-08 00:34 52.43552 -2.03296 6364 ft 265 kts 360°
2026-05-08 00:34 52.45401 -2.03242 6037 ft 267 kts
2026-05-08 00:34 52.47262 -2.03190 5761 ft 266 kts
2026-05-08 00:34 52.49088 -2.03140 5645 ft 259 kts 360°
2026-05-08 00:35 52.50874 -2.03024 5446 ft 256 kts 11°
2026-05-08 00:35 52.52394 -2.01675 5313 ft 248 kts 49°
2026-05-08 00:35 52.53423 -1.99492 5283 ft 237 kts 53°
2026-05-08 00:35 52.54444 -1.97462 5170 ft 231 kts 50°
2026-05-08 00:36 52.55502 -1.95508 4985 ft 229 kts 49°
2026-05-08 00:36 52.56572 -1.93578 4762 ft 228 kts 50°
2026-05-08 00:36 52.57284 -1.91324 4507 ft 222 kts 86°
2026-05-08 00:36 52.56971 -1.88957 4201 ft 213 kts 126°
2026-05-08 00:37 52.56024 -1.87106 3831 ft 211 kts 137°
2026-05-08 00:37 52.54927 -1.85521 3466 ft 209 kts 142°
2026-05-08 00:37 52.53768 -1.84107 2970 ft 205 kts 146°
2026-05-08 00:38 52.51550 -1.81354 2167 ft 189 kts 145°
2026-05-08 00:38 52.50522 -1.80186 1869 ft 175 kts 150°
2026-05-08 00:38 52.49504 -1.79160 1579 ft 162 kts 151°
2026-05-08 00:38 52.48565 -1.78270 1148 ft 155 kts 152°
2026-05-08 00:39 52.47671 -1.77401 845 ft 143 kts 146°
2026-05-08 00:39 52.47146 -1.76770 742 ft 144 kts 144°
2026-05-08 00:39 52.46284 -1.75749 525 ft 159 kts 143°
2026-05-08 00:39 52.45055 -1.74515 1993 ft 162 kts 161°
2026-05-08 00:40 52.44281 -1.74110 2412 ft 195 kts 165°
2026-05-08 00:40 52.42950 -1.73533 2436 ft 197 kts 167°
2026-05-08 00:40 52.41660 -1.73123 2464 ft 179 kts 182°
2026-05-08 00:40 52.40613 -1.73979 2485 ft 176 kts 235°
2026-05-08 00:41 52.40360 -1.75907 2477 ft 183 kts 282°
2026-05-08 00:41 52.41103 -1.77510 2525 ft 184 kts 327°
2026-05-08 00:41 52.42227 -1.78557 2508 ft 187 kts 328°
2026-05-08 00:41 52.43343 -1.79621 2508 ft 185 kts 327°
2026-05-08 00:42 52.44451 -1.80665 2509 ft 181 kts 327°
2026-05-08 00:42 52.45528 -1.81720 2495 ft 179 kts 323°
2026-05-08 00:42 52.46563 -1.82866 2526 ft 182 kts 323°
2026-05-08 00:42 52.47629 -1.84044 2523 ft 186 kts 323°
2026-05-08 00:43 52.48695 -1.85236 2502 ft 183 kts 322°
2026-05-08 00:43 52.49741 -1.86430 2523 ft 185 kts 323°
2026-05-08 00:43 52.50805 -1.87625 2521 ft 186 kts 324°
2026-05-08 00:43 52.51883 -1.88833 2510 ft 188 kts 323°
2026-05-08 00:44 52.52952 -1.90038 2485 ft 185 kts 325°
2026-05-08 00:44 52.54047 -1.91077 2490 ft 179 kts 329°
2026-05-08 00:44 52.55209 -1.91769 2478 ft 186 kts 358°
2026-05-08 00:44 52.56385 -1.90991 2515 ft 186 kts 50°
2026-05-08 00:45 52.56808 -1.89091 2495 ft 180 kts 100°
2026-05-08 00:45 52.56239 -1.87378 2504 ft 170 kts 141°
2026-05-08 00:45 52.55351 -1.86099 2509 ft 172 kts 139°
2026-05-08 00:45 52.54410 -1.84839 2291 ft 170 kts 147°
2026-05-08 00:46 52.53458 -1.83777 2070 ft 161 kts 148°
2026-05-08 00:46 52.52569 -1.82799 1887 ft 149 kts 148°
2026-05-08 00:46 52.51721 -1.81835 1688 ft 148 kts 147°
2026-05-08 00:46 52.50847 -1.80884 1463 ft 153 kts 147°
2026-05-08 00:47 52.49977 -1.79913 1230 ft 149 kts 146°
2026-05-08 00:47 52.49129 -1.78971 1009 ft 147 kts 146°
2026-05-08 00:47 52.48279 -1.78020 833 ft 149 kts 146°
2026-05-08 00:47 52.47422 -1.77066 630 ft 148 kts 145°
2026-05-08 00:48 52.46567 -1.76116 416 ft 149 kts 146°
2026-05-08 00:48 52.45732 -1.75187 323 ft 133 kts 147°
2026-05-08 00:48 52.45084 -1.74487 329 ft 88 kts 143°
2026-05-08 00:48 52.44794 -1.74144 322 ft 38 kts 146°
2026-05-08 00:49 52.44671 -1.73999 322 ft 16 kts 138°
2026-05-08 00:49 52.44667 -1.73916 325 ft 8 kts 70°
2026-05-08 00:49 52.44716 -1.73780 322 ft 17 kts 51°
2026-05-08 00:49 52.44816 -1.73685 323 ft 14 kts 15°
2026-05-08 00:50 52.44882 -1.73600 323 ft 13 kts 64°
2026-05-08 00:50 52.44916 -1.73467 322 ft 8 kts 60°
2026-05-08 00:50 52.44938 -1.73413 323 ft 7 kts 56°
2026-05-08 00:50 52.44965 -1.73350 323 ft 2 kts 54°
2026-05-08 00:51 52.44976 -1.73335 323 ft 1 kts
2026-05-08 00:51 52.44989 -1.73349 323 ft 4 kts 327°
2026-05-08 00:51 52.45008 -1.73370 322 ft 2 kts 327°
2026-05-08 00:51 52.45014 -1.73376 323 ft 2 kts 326°
2026-05-08 00:52 52.45015 -1.73377 323 ft 0 kts 326°